User: anonymous   Login
Location: Unspecified
(0.0000°N, 0.0000°E)
Time: 09:12:26
(UTC+00:00)
Language:

Kosmos-1506 - Orbit

View from above orbital plane
View from above orbital plane
View from above satellite
View from above satellite

Ground track
Ground track

The orbit data is extracted from the following two-line orbital elements,

1 14450U 83108A   17086.90966163 +.00000034 +00000-0 +18502-4 0  9993
2 14450 082.9276 256.6712 0043991 057.2848 050.2284 13.76214858494338
Epoch (UTC): 27 March 2017 21:49:54
Eccentricity: 0.0043991
inclination: 82.9276°
perigee height: 945 km
apogee height: 1010 km
right ascension of ascending node: 256.6712°
argument of perigee: 57.2848°
revolutions per day: 13.76214858
mean anomaly at epoch: 50.2284°
orbit number at epoch: 49433

The dashed part of the orbit path shows where the satellite is in the earth's shadow,  

DLR